Location: *
(41.0833°N, 73.4167°W)
Time: 18:33:31
(UTC+00:00)

Cosmos 1300 - Pass Details

Date: 22 October 2019
Orbit: 511 x 515 km, 82.5° (Epoch: 12 November)

Event Time Altitude Azimuth Distance (km) Brightness Sun altitude
Rises 00:06:03 0° 205° (SSW) 2,617 6.5 -23.6°
Reaches altitude 10° 00:08:17 10° 214° (SW) 1,735 5.7 -24.0°
Maximum altitude 00:11:50 36° 282° (WNW) 825 4.2 -24.7°
Drops below altitude 10° 00:15:23 10° 351° (N) 1,747 5.6 -25.4°
Sets 00:17:39 0° 360° (N) 2,638 6.4 -25.8°
